Weather History for Red Oak, IA

Change the Weather History Date:

Wednesday, November 21, 2012

  Actual Average Record
Temperature  
Mean Temperature 55 °F -  
Max Temperature 75 °F 46 °F 93 °F (1997)
Min Temperature 35 °F 24 °F 4 °F (1964)
Degree Days  
Heating Degree Days 10    
Growing Degree Days 5 (Base 50)    
Moisture  
Dew Point 39 °F    
Average Humidity 55    
Maximum Humidity 87    
Minimum Humidity 25    
Precipitation  
Precipitation 0.00 in - - ()
Sea Level Pressure  
Sea Level Pressure 30.03 in    
Wind  
Wind Speed 8 mph (SSW)    
Max Wind Speed 24 mph    
Max Gust Speed 32 mph    
Visibility 10 miles    
Events      
Averages and records for this station are not official NWS values.
T = Trace of Precipitation, MM = Missing Value Source: NWS Daily Summary

Daily Weather History Graph

Daily Weather History Graph

Search for Another Location

Airport:

Trip Planner

Search our weather history database for the weather conditions in past years. The results will help you decide how hot, cold, wet, or windy it might be!

Date:

Astronomy

Nov. 21, 2012 Rise Set
Actual Time 7:16 AM CST 4:57 PM CST
Civil Twilight 6:46 AM CST 5:27 PM CST
Nautical Twilight 6:12 AM CST 6:01 PM CST
Astronomical Twilight 5:39 AM CST 6:33 PM CST
Moon 1:17 PM CST (11/21) 12:33 AM CST (11/21)
Length of Visible Light 10h 41m
Length of Day
9h 41m
First Quarter, 62% of the Moon is Illuminated
Nov 21
First Quarter
Nov 28
Full
Dec 6
Last Quarter
Dec 13
New
Dec 19
First Quarter

Hourly Weather History & Observations

Time (CST) Temp. Windchill Dew Point Humidity Pressure Visibility Wind Dir Wind Speed Gust Speed Precip Events Conditions
12:15 AM 42.8 °F 41.1 °F 35.6 °F 76% 30.15 in 10.0 mi SSW 3.5 mph - N/A   Clear
12:35 AM 44.6 °F 40.7 °F 37.4 °F 76% 30.15 in 10.0 mi SSW 6.9 mph - N/A   Clear
12:55 AM 44.6 °F 42.2 °F 37.4 °F 76% 30.14 in 10.0 mi SSW 4.6 mph - N/A   Clear
1:15 AM 42.8 °F 41.1 °F 35.6 °F 76% 30.14 in 10.0 mi SSW 3.5 mph - N/A   Clear
1:35 AM 42.8 °F 39.3 °F 35.6 °F 76% 30.13 in 10.0 mi SSW 5.8 mph - N/A   Clear
1:55 AM 44.6 °F 43.1 °F 37.4 °F 76% 30.14 in 10.0 mi SSW 3.5 mph - N/A   Clear
2:15 AM 44.6 °F - 37.4 °F 76% 30.14 in 10.0 mi Calm Calm - N/A   Clear
2:35 AM 39.2 °F - 33.8 °F 81% 30.14 in 10.0 mi Calm Calm - N/A   Clear
2:55 AM 39.2 °F - 35.6 °F 87% 30.14 in 10.0 mi Calm Calm - N/A   Scattered Clouds
3:15 AM 42.8 °F 41.1 °F 35.6 °F 76% 30.14 in 10.0 mi South 3.5 mph - N/A   Clear
3:35 AM 42.8 °F - 37.4 °F 81% 30.13 in 10.0 mi Calm Calm - N/A   Scattered Clouds
3:55 AM 42.8 °F - 35.6 °F 76% 30.13 in 10.0 mi Calm Calm - N/A   Clear
4:15 AM 42.8 °F - 37.4 °F 81% 30.13 in 10.0 mi Calm Calm - N/A   Clear
4:35 AM 42.8 °F - 35.6 °F 76% 30.13 in 10.0 mi Calm Calm - N/A   Clear
4:55 AM 41.0 °F - 35.6 °F 81% 30.13 in 10.0 mi Calm Calm - N/A   Clear
5:15 AM 39.2 °F - 33.8 °F 81% 30.13 in 7.0 mi Calm Calm - N/A   Clear
5:35 AM 37.4 °F - 33.8 °F 87% 30.13 in 7.0 mi Calm Calm - N/A   Clear
5:55 AM 37.4 °F - 32.0 °F 81% 30.13 in 7.0 mi Calm Calm - N/A   Clear
6:15 AM 35.6 °F 32.8 °F 30.2 °F 81% 30.13 in 7.0 mi South 3.5 mph - N/A   Clear
6:35 AM 37.4 °F - 30.2 °F 75% 30.13 in 7.0 mi Calm Calm - N/A   Clear
6:55 AM 39.2 °F - 33.8 °F 81% 30.12 in 7.0 mi Calm Calm - N/A   Clear
7:15 AM 41.0 °F - 35.6 °F 81% 30.13 in 10.0 mi Calm Calm - N/A   Clear
7:35 AM 39.2 °F - 33.8 °F 81% 30.13 in 10.0 mi Calm Calm - N/A   Clear
7:55 AM 41.0 °F - 35.6 °F 81% 30.12 in 10.0 mi Calm Calm - N/A   Clear
8:15 AM 42.8 °F - 37.4 °F 81% 30.13 in 10.0 mi Calm Calm - N/A   Clear
8:35 AM 46.4 °F 45.2 °F 39.2 °F 76% 30.12 in 10.0 mi SSW 3.5 mph - N/A   Clear
8:55 AM 48.2 °F - 39.2 °F 71% 30.12 in 10.0 mi South 8.1 mph - N/A   Clear
9:15 AM 51.8 °F - 42.8 °F 71% 30.12 in 10.0 mi SSW 9.2 mph - N/A   Clear
9:35 AM 55.4 °F - 42.8 °F 63% 30.11 in 10.0 mi South 9.2 mph - N/A   Clear
9:55 AM 57.2 °F - 42.8 °F 59% 30.11 in 10.0 mi South 10.4 mph - N/A   Clear
10:15 AM 60.8 °F - 44.6 °F 55% 30.10 in 10.0 mi South 12.7 mph - N/A   Clear
10:35 AM 64.4 °F - 44.6 °F 49% 30.10 in 10.0 mi SSW 16.1 mph 23.0 mph N/A   Clear
10:55 AM 66.2 °F - 42.8 °F 43% 30.09 in 10.0 mi SSW 18.4 mph 21.9 mph N/A   Clear
11:15 AM 66.2 °F - 42.8 °F 43% 30.08 in 10.0 mi SSW 24.2 mph 28.8 mph N/A   Clear
11:35 AM 68.0 °F - 42.8 °F 40% 30.07 in 10.0 mi SSW 18.4 mph 25.3 mph N/A   Clear
11:55 AM 69.8 °F - 42.8 °F 38% 30.06 in 10.0 mi SSW 16.1 mph - N/A   Clear
12:15 PM 71.6 °F - 42.8 °F 35% 30.04 in 10.0 mi SSW 19.6 mph 24.2 mph N/A   Clear
12:35 PM 73.4 °F - 42.8 °F 33% 30.03 in 10.0 mi SW 19.6 mph 24.2 mph N/A   Clear
12:55 PM 73.4 °F - 42.8 °F 33% 30.02 in 10.0 mi SSW 21.9 mph 28.8 mph N/A   Clear
1:15 PM 73.4 °F - 39.2 °F 29% 30.01 in 10.0 mi SSW 24.2 mph 32.2 mph N/A   Clear
1:35 PM 73.4 °F - 39.2 °F 29% 30.00 in 10.0 mi SSW 23.0 mph 31.1 mph N/A   Clear
1:55 PM 73.4 °F - 39.2 °F 29% 29.99 in 10.0 mi SSW 19.6 mph 26.5 mph N/A   Clear
2:15 PM 73.4 °F - 37.4 °F 27% 29.98 in 10.0 mi SSW 20.7 mph 29.9 mph N/A   Clear
2:35 PM 73.4 °F - 37.4 °F 27% 29.97 in 10.0 mi SSW 24.2 mph 27.6 mph N/A   Clear
2:55 PM 75.2 °F - 37.4 °F 25% 29.96 in 10.0 mi South 20.7 mph 28.8 mph N/A   Clear
3:15 PM 75.2 °F - 37.4 °F 25% 29.95 in 10.0 mi SSW 19.6 mph 27.6 mph N/A   Clear
3:35 PM 73.4 °F - 39.2 °F 29% 29.94 in 10.0 mi SSW 19.6 mph 28.8 mph N/A   Scattered Clouds
3:55 PM 73.4 °F - 39.2 °F 29% 29.94 in 10.0 mi South 16.1 mph 23.0 mph N/A   Clear
4:15 PM 73.4 °F - 37.4 °F 27% 29.93 in 10.0 mi SSW 15.0 mph - N/A   Clear
4:35 PM 71.6 °F - 37.4 °F 29% 29.92 in 10.0 mi SSW 17.3 mph 23.0 mph N/A   Clear
4:55 PM 69.8 °F - 39.2 °F 33% 29.92 in 10.0 mi South 15.0 mph 20.7 mph N/A   Clear
5:15 PM 68.0 °F - 41.0 °F 37% 29.92 in 10.0 mi South 11.5 mph - N/A   Scattered Clouds
5:35 PM 66.2 °F - 42.8 °F 43% 29.92 in 10.0 mi South 11.5 mph - N/A   Clear
5:55 PM 66.2 °F - 42.8 °F 43% 29.92 in 10.0 mi South 10.4 mph - N/A   Scattered Clouds
6:15 PM 64.4 °F - 44.6 °F 49% 29.92 in 10.0 mi South 8.1 mph - N/A   Scattered Clouds
6:35 PM 64.4 °F - 44.6 °F 49% 29.92 in 10.0 mi South 12.7 mph - N/A   Clear
6:55 PM 62.6 °F - 44.6 °F 52% 29.92 in 10.0 mi South 13.8 mph - N/A   Scattered Clouds
7:15 PM 62.6 °F - 44.6 °F 52% 29.92 in 10.0 mi South 15.0 mph - N/A   Scattered Clouds
7:35 PM 62.6 °F - 44.6 °F 52% 29.92 in 10.0 mi South 13.8 mph - N/A   Scattered Clouds
7:55 PM 62.6 °F - 42.8 °F 48% 29.92 in 10.0 mi South 13.8 mph 20.7 mph N/A   Scattered Clouds
8:15 PM 62.6 °F - 41.0 °F 45% 29.92 in 10.0 mi South 15.0 mph 19.6 mph N/A   Clear
8:35 PM 62.6 °F - 39.2 °F 42% 29.91 in 10.0 mi South 17.3 mph - N/A   Clear
8:55 PM 62.6 °F - 39.2 °F 42% 29.91 in 10.0 mi South 16.1 mph 21.9 mph N/A   Scattered Clouds
9:15 PM 62.6 °F - 39.2 °F 42% 29.91 in 10.0 mi South 18.4 mph 23.0 mph N/A   Clear
9:35 PM 62.6 °F - 39.2 °F 42% 29.90 in 10.0 mi South 16.1 mph 25.3 mph N/A   Scattered Clouds
9:55 PM 62.6 °F - 39.2 °F 42% 29.90 in 10.0 mi South 16.1 mph - N/A   Scattered Clouds
10:15 PM 62.6 °F - 39.2 °F 42% 29.89 in 10.0 mi South 16.1 mph 20.7 mph N/A   Scattered Clouds
10:35 PM 60.8 °F - 39.2 °F 45% 29.88 in 10.0 mi South 15.0 mph - N/A   Clear
10:55 PM 60.8 °F - 39.2 °F 45% 29.87 in 10.0 mi South 16.1 mph 19.6 mph N/A   Clear
11:15 PM 60.8 °F - 39.2 °F 45% 29.86 in 10.0 mi South 17.3 mph 21.9 mph N/A   Scattered Clouds
11:35 PM 59.0 °F - 39.2 °F 48% 29.86 in 10.0 mi South 15.0 mph - N/A   Scattered Clouds
11:55 PM 59.0 °F - 39.2 °F 48% 29.86 in 10.0 mi South 15.0 mph - N/A   Clear